This is the latest recevied weather packets stored in our database for station/object W8LMG. If no packets are shown the sender has not sent any weather packets the latest 10 day(s).
| Time | Temp. | Humidity | Pressure | Rain* | Wind** | Luminosity | Snow |
|---|---|---|---|---|---|---|---|
| 1777677445 | 14.44° C | 44% | 1011.5 hPa | 0 mm | - | 39 W/m² | - |
| 1777677143 | 15° C | 44% | 1011.5 hPa | 0 mm | - | 41 W/m² | - |
| 1777676841 | 15° C | 45% | 1011.6 hPa | 0 mm | - | 47 W/m² | - |
| 1777676540 | 15° C | 42% | 1011.4 hPa | 0 mm | - | 59 W/m² | - |
| 1777676237 | 15.56° C | 42% | 1011.3 hPa | 0 mm | - | 59 W/m² | - |
| 1777675934 | 15.56° C | 40% | 1011.2 hPa | 0 mm | - | 61 W/m² | - |
| 1777675629 | 15.56° C | 40% | 1011.4 hPa | 0 mm | - | 43 W/m² | - |
| 1777675328 | 15.56° C | 38% | 1010.9 hPa | 0 mm | - | 43 W/m² | - |
| 1777675024 | 15.56° C | 38% | 1011 hPa | 0 mm | - | 48 W/m² | - |
| 1777674720 | 16.11° C | 35% | 1010.9 hPa | 0 mm | - | 38 W/m² | - |
| 1777674417 | 16.11° C | 37% | 1011 hPa | 0 mm | - | 54 W/m² | - |
| 1777674114 | 16.67° C | 37% | 1011 hPa | 0 mm | - | 64 W/m² | - |
| 1777673810 | 17.22° C | 36% | 1011 hPa | 0 mm | - | 78 W/m² | - |
| 1777673507 | 16.67° C | 33% | 1010.9 hPa | 0 mm | - | 105 W/m² | - |
| 1777673205 | 17.22° C | 32% | 1011.2 hPa | 0 mm | - | 93 W/m² | - |
| 1777672902 | 16.67° C | 33% | 1010.8 hPa | 0 mm | - | 143 W/m² | - |
| 1777672599 | 17.22° C | 32% | 1010.8 hPa | 0 mm | - | 68 W/m² | - |
| 1777672294 | 17.22° C | 37% | 1010.8 hPa | 0 mm | - | 89 W/m² | - |
| 1777671989 | 17.22° C | 29% | 1010.7 hPa | 0 mm | - | 84 W/m² | - |
| 1777671685 | 17.78° C | 27% | 1010.5 hPa | 0 mm | - | 91 W/m² | - |
| 1777671382 | 17.78° C | 31% | 1010.5 hPa | 0 mm | - | 232 W/m² | - |
| 1777671078 | 17.78° C | 27% | 1010.7 hPa | 0 mm | - | 115 W/m² | - |
| 1777670775 | 18.33° C | 31% | 1010.5 hPa | 0 mm | - | 88 W/m² | - |
| 1777670472 | 18.89° C | 25% | 1010.4 hPa | 0 mm | - | 234 W/m² | - |
| 1777670168 | 19.44° C | 25% | 1010.7 hPa | 0 mm | - | 392 W/m² | - |
* Rain latest hour (hover to see other rain measurements)
** Current wind speed in m/s (hover to see current wind gust speed)